Regional Weather Roundup
Issued by NWS

Home | Current Version | Previous Version | Graphics & Text | Print | Product List | Glossary On
Versions: 1 2 3 4 5 6 7 8 9 10 11 12 13 14 15 16 17 18 19 20 21 22 23 24 25 26 27 28 29 30 31 32 33 34 35 36 37 38 39 40 41 42 43 44 45 46 47 48 49 50
000
ASUS45 KABQ 072301
RWRNM
NEW MEXICO REGIONAL WEATHER ROUNDUP
NATIONAL WEATHER SERVICE ALBUQUERQUE NM
500 PM MDT TUE JUL 07 2015

NOTE: "FAIR" MEANS FEW OR NO CLOUDS BELOW 12,000 FEET AGL WITH NO
       SIGNIFICANT WEATHER OR OBSTRUCTIONS TO VISION.

      THIS PRODUCT IS RELEASED AS TWO VERSIONS.  ONE VERSION NEAR
      THE TOP OF THE HOUR CONTAINING PRELIMINARY DATA FROM ALBUQUERQUE
      AND OTHER STATIONS.  A FINAL VERSION WITH ADDITIONAL DATA IS
      ISSUED ABOUT 10 MINUTES AFTER THE HOUR.

NMZ501-503-504-510>518-080000-
NORTHWEST PLATEAU/NORTHCENTRAL MOUNTAINS

CITY           SKY/WX    TMP DP  RH WIND       PRES   REMARKS
FARMINGTON     PTSUNNY   68  50  52 N12       30.07F
SANTA FE       PTSUNNY   68  52  56 W8        30.17S THUNDER
TAOS           CLOUDY    66  43  42 N18G24    30.23R

$$
NMZ402-403-502-505>509-080000-
WESTCENTRAL MOUNTAINS/SOUTHWEST MOUNTAINS

CITY           SKY/WX    TMP DP  RH WIND       PRES   REMARKS
GALLUP         MOSUNNY   83  41  22 W21G26    30.11F
SILVER CITY      N/A     81  57  44 E17       30.09S

$$
NMZ407-409-411-412-080000-
SOUTHERN DESERTS

CITY           SKY/WX    TMP DP  RH WIND       PRES   REMARKS
DEMING         TSTM      78  58  49 NE17G28   30.00F
HOLLOMAN AFB   TSTM      64  61  88 S28G37    30.05R FOG
ALAMOGORDO     TSTM      63  61  94 W29G46    30.07R VSB 3/4
T OR C         CLOUDY    80  55  42 W12       30.09R

$$
NMZ519>523-080000-
CENTRAL VALLEYS/CENTRAL HIGHLANDS

CITY           SKY/WX    TMP DP  RH WIND       PRES   REMARKS
ALBUQUERQUE    TSTM      68  54  60 N18G36    30.12S
DOUBLE EAGLE   PTSUNNY   68  54  60 N8        30.14F
MORIARTY ARPT    N/A     74  55  52 SE13      30.16F
CLINES CORNERS PTSUNNY   68  56  65 SE10      30.21F
BELEN          FAIR      81  45  27 SW6       30.08F
SOCORRO        NOT AVBL

$$
NMZ524>526-539-540-080000-
SOUTHCENTRAL MOUNTAINS

CITY           SKY/WX    TMP DP  RH WIND       PRES   REMARKS
RUIDOSO        NOT AVBL

$$
NMZ527>531-080000-
NORTHEAST HIGHLANDS/NORTHEAST PLAINS

CITY           SKY/WX    TMP DP  RH WIND       PRES   REMARKS
LAS VEGAS      CLOUDY    62  55  77 S10       30.23F HAZE
RATON          CLOUDY    64  55  72 SW5       30.20F HAZE
CLAYTON        PTSUNNY   73  49  42 NE6       30.15F HAZE

$$
NMZ532>537-080000-
EASTCENTRAL PLAINS

CITY           SKY/WX    TMP DP  RH WIND       PRES   REMARKS
TUCUMCARI      CLOUDY    74  55  51 E8        30.10F HAZE
CANNON AFB     NOT AVBL
CLOVIS AIRPORT CLOUDY    66  57  72 NE6         N/A

$$
NMZ028-029-538-080000-
SOUTHEAST PLAINS

CITY           SKY/WX    TMP DP  RH WIND       PRES   REMARKS
ROSWELL        PTSUNNY   80  59  48 E14       30.03F
ARTESIA        PTSUNNY   79  63  57 E7G14     30.04F
CARLSBAD       MOSUNNY   82  63  52 NE12      30.00F
HOBBS          PTSUNNY   77  64  65 NE9G16    30.06F


$$


USA.gov is the U.S. government's official web portal to all federal, state and local government web resources and services.